MDT,Max TemperatureF,Mean TemperatureF,Min TemperatureF,Max Dew PointF,MeanDew PointF,Min DewpointF,Max Humidity, Mean Humidity, Min Humidity, Max Sea Level PressureIn, Mean Sea Level PressureIn, Min Sea Level PressureIn, Max VisibilityMiles, Mean VisibilityMiles, Min VisibilityMiles, Max Wind SpeedMPH, Mean Wind SpeedMPH, Max Gust SpeedMPH,PrecipitationIn, CloudCover, Events, WindDirDegrees
2013-6-1,60,48,35,37,32,28,85,59,33,30.17,30.07,29.91,10,10,10,24,8,37,0.00,3,,336
2013-6-2,67,50,33,45,39,32,92,67,42,30.15,29.94,29.72,10,10,10,16,7,22,0.00,0,,158
2013-6-3,71,57,42,44,38,30,89,58,26,29.85,29.67,29.52,10,10,10,23,7,29,0.00,1,,258
2013-6-4,60,49,38,32,30,26,76,56,35,30.16,29.99,29.85,10,10,10,20,7,26,0.00,2,,302
2013-6-5,56,43,30,38,33,28,92,68,43,30.21,30.16,30.11,10,10,10,12,5,17,0.00,5,,47
2013-6-6,65,48,31,44,39,29,96,71,46,30.12,30.06,30.02,10,10,9,14,4,29,0.00,2,,31
2013-6-7,76,58,39,49,40,31,92,56,20,30.06,29.86,29.65,10,10,10,17,6,25,0.10,1,Rain,266
2013-6-8,65,55,45,48,42,34,100,66,31,29.94,29.77,29.62,10,8,2,24,9,38,0.31,3,Rain,316
2013-6-9,75,58,41,48,39,32,82,52,22,29.93,29.86,29.76,10,10,10,17,5,22,0.00,0,,271
2013-6-10,82,65,48,55,49,41,80,53,26,29.78,29.73,29.67,10,10,10,15,7,22,0.00,0,,109
2013-6-11,69,60,51,59,54,48,93,77,61,30.04,29.85,29.73,10,9,2,20,12,26,0.33,5,Rain,53
2013-6-12,66,57,47,52,48,44,93,75,56,30.21,30.06,29.87,10,10,6,17,7,23,0.00,4,,72
2013-6-13,66,57,47,52,47,40,93,77,60,30.21,30.03,29.82,10,10,10,16,7,24,0.01,2,,152
2013-6-14,76,64,52,52,44,29,83,51,18,29.93,29.82,29.73,10,10,10,18,8,24,0.00,0,,343
2013-6-15,71,60,48,44,40,36,74,51,28,30.02,29.97,29.93,10,10,10,13,4,18,0.00,4,,85
2013-6-16,76,61,45,55,49,41,93,69,44,30.13,30.00,29.93,10,10,8,20,7,25,0.00,2,,122
2013-6-17,68,58,47,52,49,45,100,75,49,30.26,30.09,30.06,10,9,2,17,5,22,0.50,4,Rain,110
2013-6-18,74,59,44,52,48,43,93,66,38,30.10,29.98,29.84,10,10,8,16,6,22,0.00,0,,172
2013-6-19,76,63,50,59,52,43,78,63,47,29.83,29.71,29.61,10,10,10,18,8,28,T,0,,150
2013-6-20,78,66,54,56,45,30,86,52,17,29.83,29.75,29.63,10,10,10,16,6,22,0.00,1,,83
2013-6-21,70,61,52,58,55,48,93,77,61,30.07,29.92,29.79,10,10,6,23,10,32,0.22,5,Rain,58
2013-6-22,69,58,47,54,49,44,96,75,53,30.05,29.92,29.75,10,8,0,26,7,43,0.18,4,Fog-Rain,31
2013-6-23,70,56,42,50,40,31,100,62,24,30.01,29.88,29.79,10,8,0,18,6,28,0.00,1,Fog,243
2013-6-24,84,67,50,54,45,34,96,57,17,29.77,29.67,29.61,10,10,9,18,5,31,T,0,,164
2013-6-25,77,65,52,52,45,37,80,56,31,30.02,29.72,29.63,10,10,10,20,7,26,0.00,1,,275
2013-6-26,85,68,50,53,47,41,89,56,23,29.99,29.89,29.84,10,10,10,16,7,22,0.00,0,,293
2013-6-27,83,68,53,54,49,43,83,54,24,30.14,30.06,29.99,10,10,10,18,6,28,0.00,0,,321
2013-6-28,79,65,51,51,47,42,77,54,30,30.19,30.14,30.09,10,10,10,12,4,18,0.00,2,,46
2013-6-29,74,62,49,52,47,39,86,63,39,30.14,30.11,30.07,10,10,10,17,6,23,0.00,2,,57
2013-6-30,73,60,47,50,46,40,80,59,38,30.15,30.14,30.11,10,10,10,14,4,17,0.00,2,,81